Regional Weather Roundup
Issued by NWS

Home | Current Version | Previous Version | Text Only | Print | Product List | Glossary Off
Versions: 1 2 3 4 5 6 7 8 9 10 11 12 13 14 15 16 17 18 19 20 21 22 23 24 25 26 27 28 29 30 31 32 33 34 35 36 37 38 39 40 41 42 43 44 45 46 47 48 49 50

000
ASUS43 KMPX 261410
RWRMN
WEATHER ROUNDUP FOR MINNESOTA
NATIONAL WEATHER SERVICE TWIN CITIES/CHANHASSEN MN
900 AM CDT FRI AUG 26 2016


NOTE: "FAIR" INDICATES FEW OR NO CLOUDS BELOW 12,000 FEET WITH NO
SIGNIFICANT WEATHER AND/OR OBSTRUCTIONS TO VISIBILITY. N/A MEANS
CURRENT SKY AND/OR WEATHER CONDITIONS ARE NOT AVAILABLE.

MNZ060>063-068>070-261500-
   Twin Cities Metro

CITY           SKY/WX    TMP DP  RH WIND       PRES   REMARKS
TWIN CITIES    MOSUNNY   62  55  77 CALM      30.19R
ST PAUL        SUNNY     64  57  78 CALM      30.20R
CRYSTAL        SUNNY     63  54  72 CALM      30.18R
BLAINE         MOSUNNY   63  59  88 CALM      30.19R
LAKEVILLE      SUNNY     61  57  88 CALM      30.20S
EDEN PRAIRIE   SUNNY     60  57  89 SW3       30.19R
LAKEVILLE      SUNNY     61  57  88 CALM      30.20S
SOUTH ST PAUL  SUNNY     62  56  79 CALM      30.19R
LAKE ELMO      FAIR      61  57  88 CALM      30.21R
$$
MNZ001>005-007-008-013>017-022>024-027-028-261500-
   Northwest Minnesota

CITY           SKY/WX    TMP DP  RH WIND       PRES   REMARKS
BEMIDJI        SUNNY     57  52  84 CALM      30.12S
HALLOCK        SUNNY     55  52  88 S5        30.05S
ROSEAU         SUNNY     55  52  88 S3        30.07F
WARROAD        SUNNY     55  52  88 CALM      30.08S
THIEF RVR FALL SUNNY     55  52  89 S6        30.10S
CROOKSTON      SUNNY     55  52  88 S7        30.10S
FOSSTON        SUNNY     55  52  88 S8        30.12S
DETROIT LAKES  SUNNY     61  52  72 SW7       30.15R
MOORHEAD       SUNNY     55  52  88 S6        30.14R
PARK RAPIDS    SUNNY     60  53  77 SW6       30.14R
MAHNOMEN       FAIR      56  52  85 S9        30.13R
$$
MNZ006-009>011-018-025>026-261500-
   North Central Minnesota

CITY           SKY/WX    TMP DP  RH WIND       PRES   REMARKS
BAUDETTE       SUNNY     55  51  86 S3        30.09S
FLAG ISLAND    SUNNY     59  48  67 CALM      30.06S
INTL FALLS     SUNNY     56  53  90 S3        30.11S
WASKISH        SUNNY     59  55  88 CALM      30.10S
BIG FORK       SUNNY     61  54  77 CALM      30.12S
LONGVILLE      SUNNY     57  57 100 SW3       30.13S
GRAND RAPIDS   SUNNY     60  55  83 SE3       30.15S
CRANE LAKE     MOSUNNY   52  52 100 S1        30.14S
ORR            SUNNY     55  52  88 CALM      30.11S
COOK           SUNNY     55  55 100 CALM      30.14S
WALKER         FAIR      58  53  84 SW3       30.13R
$$
MNZ012-019>021-037-261500-
   Northeast Minnesota

CITY           SKY/WX    TMP DP  RH WIND       PRES   REMARKS
DULUTH         SUNNY     63  53  70 NW5       30.15R
ELY            PTSUNNY   54  52  94 CALM      30.14S
HIBBING        SUNNY     59  51  75 CALM      30.13F
EVELETH        SUNNY     60  53  78 CALM      30.15S
DULUTH HARBOR  SUNNY     64  55  72 CALM      30.15R
TWO HARBORS    SUNNY     64  55  72 W5        30.13R
SILVER BAY     SUNNY     63  54  72 NW5       30.12R
GRAND MARAIS     N/A     60  48  64 S6        30.12R
G MARAIS ARPRT SUNNY     57  46  67 NW5       30.13S
$$
MNZ029>031-032-039>041-046>048-054>057-064-261500-
   West Central Minnesota

CITY           SKY/WX    TMP DP  RH WIND       PRES   REMARKS
FERGUS FALLS   SUNNY     57  55  94 S3        30.18R
WHEATON        SUNNY     61  55  82 S2        30.18R
MORRIS         SUNNY     61  57  88 CALM      30.17S
ALEXANDRIA     SUNNY     60  55  83 CALM      30.19R
ELBOW LAKE     FAIR      57  55  93 SW6       30.18R
WADENA         SUNNY     57  55  94 W5        30.15
GLENWOOD       SUNNY     59  57  94 SW5       30.19R
APPLETON       SUNNY     61  54  77 CALM      30.17S
BENSON         SUNNY     55  54  94 CALM      30.18S
ORTONVILLE     SUNNY     61  54  77 CALM      30.17S
MADISON        SUNNY     57  55  94 CALM      30.18R
WILLMAR        FAIR      57  55  94 CALM      30.21R
$$
MNZ033>034-036-042>043-049>051-058-059-261500-
   Central Minnesota

CITY           SKY/WX    TMP DP  RH WIND       PRES   REMARKS
ST CLOUD       SUNNY     62  57  83 CALM      30.18R
SAUK CENTRE    FAIR      58  55  91 CALM      30.18R
PAYNESVILLE    SUNNY     59  59 100 CALM      30.20R
AITKIN         SUNNY     63  54  72 SW3       30.14R
PINE RIVER     SUNNY     59  54  82 SW3       30.17S
BRAINERD       SUNNY     59  56  89 SW5       30.16R
STAPLES        SUNNY     57  55  94 CALM      30.16R
LONG PRAIRIE   FAIR      59  55  88 CALM      30.18R
LITTLE FALLS   SUNNY     55  54  94 CALM      30.17R
LITCHFIELD     SUNNY     63  57  82 CALM      30.20R
BUFFALO        SUNNY     60  56  88 CALM      30.21R
MAPLE LAKE     SUNNY     63  58  86 S3        30.20R
HUTCHINSON     SUNNY     59  58  95 CALM      30.21R
$$
MNZ037-044-045-052-053-261500-
   East Central Minnesota

CITY           SKY/WX    TMP DP  RH WIND       PRES   REMARKS
PRINCETON      SUNNY     59  57  94 CALM      30.18R
MORA           SUNNY     59  54  82 CALM      30.19R
CAMBRIDGE      SUNNY     63  54  72 CALM      30.17R
RUSH CITY      MOSUNNY   61  56  85 CALM      30.18R
MOOSE LAKE     SUNNY     59  54  82 CALM      30.15R
HINCKLEY       FAIR      59  57  94 CALM      30.18R
CLOQUET        SUNNY     61  52  72 CALM      30.15S
MCGREGOR       SUNNY     57  55  94 CALM      30.16S
$$
MNZ071>073-080-081-089-090-097-098-261500-
   Southwest Minnesota

CITY           SKY/WX    TMP DP  RH WIND       PRES   REMARKS
MONTEVIDEO     SUNNY     63  59  88 CALM      30.21R
GRANITE FALLS  SUNNY     59  56  91 CALM      30.21S
CANBY          MOSUNNY   62  55  80 CALM      30.20R
MARSHALL       MOSUNNY   60  55  83 CALM      30.20R
REDWOOD FALLS  SUNNY     59  53  80 CALM      30.20R
OLIVIA         SUNNY     55  54  94 CALM      30.19R
PIPESTONE      CLOUDY    57  54  88 CALM      30.20S
WINDOM         CLOUDY    61  55  82 CALM      30.21S
WORTHINGTON    CLOUDY    58  56  93 E6        30.21F
JACKSON        CLOUDY    61  54  77 CALM      30.22R
TRACY          CLOUDY    62  56  81 SW3       30.20F
SLAYTON        CLOUDY    59  54  82 CALM      30.21F
$$
MNZ065>067-074>077-082>085-091>093-261500-
   South Central Minnesota

CITY           SKY/WX    TMP DP  RH WIND       PRES   REMARKS
MANKATO        CLOUDY    59  54  82 CALM      30.21R
NEW ULM          N/A     59  55  88 CALM      30.19F
FAIRMONT       CLOUDY    60  56  86 CALM      30.22R
GLENCOE        SUNNY     60  59  96 CALM      30.20R
FARIBAULT      CLOUDY    61  57  88 CALM      30.21S
OWATONNA       MOSUNNY   59  55  88 CALM      30.21S
WASECA         MOSUNNY   55  55 100 CALM      30.22S
ALBERT LEA     CLOUDY    61  57  88 CALM      30.21S
$$
MNZ078>079-086>088-094>096-261500-
   Southeast Minnesota

CITY           SKY/WX    TMP DP  RH WIND       PRES   REMARKS
ROCHESTER      MOSUNNY   62  57  83 CALM      30.22R
RED WING       SUNNY     63  57  82 CALM      30.19R
STANTON        CLOUDY    59  55  88 CALM      30.19S
DODGE CENTER   MOSUNNY   64  55  72 CALM      30.21S
WINONA         MOSUNNY   61  55  82 CALM      30.21R
AUSTIN         CLOUDY    63  55  77 CALM      30.21R
PRESTON        MOSUNNY   60  54  81 CALM      30.22S
$$
ABBREVIATIONS USED IN REMARKS
   TC - TEMPERATURES IN CELSIUS
  WCI - WIND CHILL INDEX
   HX - HEAT INDEX
  VSB - VISIBILITY
$$




USA.gov is the U.S. government's official web portal to all federal, state and local government web resources and services.